Location: Ohmer (historical)
(38.0096°N, 122.0227°W)
Time: 01:42:56
(UTC+00:00)

USA 215 - Visible Passes

Search period start: 16 May 2026 00:00
Search period end: 26 May 2026 00:00
Orbit: 1098 x 1109 km, 123.0° (Epoch: 10 January)

Date Brightness Start Highest point End Pass type
(mag) Time Alt. Az. Time Alt. Az. Time Alt. Az.
16 May 3.4 03:40:23 10° SE 03:46:55 82° SW 03:53:29 10° NW visible
16 May 5.1 05:26:32 11° SSW 05:30:27 18° WSW 05:34:43 10° W visible
17 May 4.1 04:42:05 14° SSE 04:47:20 40° SW 04:53:25 10° WNW visible
18 May 3.3 03:57:55 10° SE 04:04:26 82° SW 04:11:00 10° NW visible
18 May 5.0 05:45:00 13° SSW 05:47:59 18° WSW 05:52:13 10° W visible
19 May 4.1 05:00:31 18° S 05:04:51 40° SW 05:10:56 10° WNW visible
20 May 3.3 04:16:01 13° SE 04:21:57 81° SW 04:28:31 10° NW visible
20 May 5.0 06:03:22 15° SW 06:05:30 18° WSW 06:09:42 10° W visible
21 May 4.1 05:18:51 23° S 05:22:22 40° SW 05:28:27 10° WNW visible
22 May 3.3 04:34:20 18° SE 04:39:28 81° SW 04:46:02 10° NW visible
22 May 4.9 06:21:40 17° SW 06:23:02 18° WSW 06:27:12 10° W visible
23 May 3.7 03:50:30 10° ESE 03:56:49 56° NE 04:03:10 10° NW visible
23 May 4.0 05:37:08 27° S 05:39:54 40° SW 05:45:57 10° WNW visible
24 May 3.3 04:52:34 22° SE 04:56:59 80° SW 05:03:33 10° NW visible
24 May 4.9 06:39:54 17° SW 06:40:33 18° WSW 06:44:41 10° W visible
25 May 3.7 04:08:01 10° ESE 04:14:20 56° NE 04:20:41 10° NW visible
25 May 4.0 05:55:20 31° SSW 05:57:25 39° SW 06:03:28 10° WNW visible
